Hourly Data Report for July 09, 2021

WINDSOR A
ONTARIO
Current Station Operator: NAVCAN

42°16'34.000" N
82°57'19.000" W
189.60 m
6139530
71538
YQG

Download Data

Hourly Data (July 2021)
Hourly Data Report for July 9, 2021
TIME
LST
Temp Definition
°C
Dew Point Definition
°C
Rel Hum Definition
%
Precip. Amount Definition
mm

Wind Dir Definition
10's deg

Wind Spd Definition
km/h
Visibility Definition
km
Stn Press Definition
kPa
Hmdx Definition


Wind Chill Definition


Weather Definition


00:00 17.6 15.4 87 0.0 1 11 16.1 99.07     LegendNANA
01:00 16.9 14.8 87 0.0 1 15 16.1 99.06     LegendNANA
02:00 16.6 14.5 87 0.0 36 15 16.1 99.10     LegendNANA
03:00 16.3 14.3 88 0.0 36 13 16.1 99.09     LegendNANA
04:00 15.9 13.6 86 0.0 36 15 16.1 99.13     LegendNANA
05:00 15.8 13.5 86 0.0 36 11 16.1 99.17     LegendNANA
06:00 15.7 13.2 85 0.0 1 15 16.1 99.20     LegendNANA
07:00 16.0 12.8 81 0.0 3 17 16.1 99.27     LegendNANA
08:00 16.6 13.1 80 0.0 36 13 16.1 99.36     LegendNANA
09:00 18.2 14.0 76 0.0 32 21 16.1 99.40     LegendNANA
10:00 18.8 13.1 69 0.0 36 15 16.1 99.40     LegendNANA
11:00 20.9 12.5 58 0.0 34 18 16.1 99.42     LegendNANA
12:00 21.6 11.8 53 0.0 32 15 16.1 99.40     LegendNANA
13:00 23.1 12.4 51 0.0 36 13 16.1 99.39 26   LegendNANA
14:00 23.4 12.6 50 0.0 33 15 16.1 99.37 26   LegendNANA
15:00 24.4 12.2 46 0.0 34 17 16.1 99.34 27   LegendNANA
16:00 24.4 11.2 43 0.0 36 5 16.1 99.37 26   LegendNANA
17:00 24.5 11.5 44 0.0 4 8 16.1 99.36 27   LegendNANA
18:00 24.0 11.5 45 0.0 35 15 16.1 99.40 26   LegendNANA
19:00 21.5 14.2 63 0.0 4 17 16.1 99.47 25   LegendNANA
20:00 19.4 14.0 71 0.0 5 17 16.1 99.54     LegendNANA
21:00 17.0 15.0 88 0.0 14 5 16.1 99.60     LegendNANA
22:00 16.4 14.6 89 0.0 9 5 16.1 99.62     LegendNANA
23:00 14.7 14.1 96 0.0 9 8 9.7 99.66     Fog

Notes on Data Quality.

Legend

  • E = Estimated
  • M = Missing
  • NA = Not Available*
  • [empty] = Indicates an unobserved value
Date modified: